Flag for Germany Weather past 2 weeks in Hannover, Lower Saxony, Germany

Now
66 °F

Light rain. Fog.


Feels Like: 66 °F
Forecast: 60 / 74 °F
Wind: 5 mph from Northwest

Location: Hannover

Current Time: Jul 30, 2014 at 3:21:25 AM

Latest Report: Jul 30, 2014 at 2:50 AM


Visibility: 2 mi

Pressure: 29.77 "Hg

Humidity: 100%

Dew point: 66 °F

Location of HannoverLocation

Historic Weather in Hannover — Graph

°F

Hannover temperature yesterday

Maximum temperature yesterday: 81 °F (at 5:20 PM)
Minimum temperature yesterday: 64 °F (at 4:20 AM)
Average temperature yesterday: 71 °F

Past Weeks' High & Low Weather Summary

 TemperatureHumidityPressure
High91 °F (Jul 19, 2:50 PM)100% (Jul 16, 4:20 AM)30.18 "Hg (Jul 16, 4:20 AM)
Low54 °F (Jul 17, 4:20 AM)26% (Jul 19, 2:20 PM)29.74 "Hg (Jul 29, 6:20 PM)
Average70 °F73%29.99 "Hg
* Reported Jul 15 1:20 AM — Jul 30 1:50 AM, Hannover, Weather by CustomWeather, © 2014

Note: Actual official high and low records may vary slightly from our data, if they occured in-between our weather recording intervals... More about our weather records

Advertising

Hannover weather history for previous 24 hours

 ConditionsComfort  
Time TempWeatherWind HumidityBarometerVisibility
1:50 AM
Jul 30
66 °FFog.5 mph100%29.77 "Hg2 mi
1:20 AM66 °FLight rain. Fog.2 mph100%29.77 "Hg3 mi
12:50 AM66 °FLight rain. Clear.5 mph94%29.77 "Hg4 mi
12:20 AM66 °FLight rain. Passing clouds.2 mph100%29.77 "Hg5 mi
11:50 PM
Jul 29
66 °FPassing clouds.5 mph100%29.77 "Hg5 mi
11:20 PM66 °FLight rain. Partly cloudy.7 mph100%29.80 "Hg5 mi
10:50 PM66 °FSprinkles. Passing clouds.2 mph100%29.80 "Hg5 mi
10:20 PM68 °FSprinkles. Passing clouds.3 mph94%29.80 "Hg5 mi
9:50 PM68 °FRain showers. Partly sunny.1 mph94%29.80 "Hg5 mi
9:20 PM68 °FRain showers. Broken clouds.9 mph94%29.80 "Hg6 mi
8:50 PM70 °FBroken clouds.7 mph88%29.77 "HgN/A
8:20 PM70 °FThunderstorms. Partly sunny.14 mph83%29.77 "HgN/A
7:50 PM72 °FSprinkles. Partly sunny.15 mph78%29.74 "HgN/A
7:20 PM79 °FSprinkles. Broken clouds.5 mph65%29.74 "HgN/A
6:50 PM81 °FScattered showers. Broken clouds.3 mph58%29.74 "HgN/A
6:20 PM79 °FPartly sunny.5 mph61%29.74 "HgN/A
5:50 PM81 °FPartly sunny.7 mph58%29.77 "HgN/A
5:20 PM81 °FScattered clouds.9 mph54%29.77 "HgN/A
4:50 PM79 °FScattered clouds.7 mph58%29.77 "HgN/A
4:20 PM79 °FBroken clouds.8 mph61%29.77 "HgN/A
3:50 PM79 °FBroken clouds.6 mph61%29.77 "HgN/A
3:20 PM77 °FLight rain. Broken clouds.6 mph65%29.80 "HgN/A
2:50 PM75 °FLight rain. Partly sunny.5 mph74%29.80 "HgN/A
2:20 PM75 °FPartly sunny.5 mph69%29.80 "HgN/A
1:50 PM75 °FPartly sunny.3 mph69%29.83 "HgN/A
1:20 PM75 °FPartly sunny.2 mph69%29.83 "HgN/A
12:50 PM73 °FPartly sunny.1 mph69%29.83 "HgN/A
12:20 PM73 °FPartly sunny.5 mph69%29.83 "HgN/A
11:50 AM73 °FBroken clouds.3 mph69%29.83 "HgN/A
11:20 AM73 °FPassing clouds.7 mph69%29.86 "HgN/A
10:50 AM75 °FSunny.9 mph61%29.86 "Hg10 mi
10:20 AM75 °FScattered clouds.6 mph74%29.83 "HgN/A
9:50 AM73 °FScattered clouds.7 mph74%29.83 "HgN/A
9:20 AM73 °FPassing clouds.7 mph74%29.83 "HgN/A
8:50 AM72 °FPassing clouds.6 mph78%29.83 "HgN/A
8:20 AM70 °FPartly sunny.7 mph83%29.83 "HgN/A
7:50 AM70 °FBroken clouds.6 mph83%29.83 "HgN/A
7:20 AM68 °FPartly sunny.3 mph88%29.83 "HgN/A
6:50 AM66 °FBroken clouds.2 mph94%29.83 "HgN/A
6:20 AM64 °FFog.3 mph94%29.83 "HgN/A
5:50 AM64 °FPassing clouds.1 mph94%29.86 "HgN/A
5:20 AM64 °FPassing clouds.2 mph94%29.83 "HgN/A
4:50 AM64 °FClear.2 mph94%29.83 "Hg10 mi
4:20 AM64 °FPassing clouds.3 mph94%29.83 "HgN/A
3:50 AM66 °FClear.6 mph88%29.83 "Hg10 mi
3:20 AM66 °FClear.5 mph88%29.86 "Hg10 mi
Weather by CustomWeather, © 2014

See weather overviewHow to use our weather pages